Year,Month,Day,Hour,Minute,Value (Times are PST for temperature in C)
2012,08,16,00,00,25.80
2012,08,16,00,01,25.80
2012,08,16,00,02,25.80
2012,08,16,00,03,25.80
2012,08,16,00,04,25.80
2012,08,16,00,05,25.80
2012,08,16,00,06,25.70
2012,08,16,00,07,25.70
2012,08,16,00,08,25.70
2012,08,16,00,09,25.70
2012,08,16,00,10,25.70
2012,08,16,00,11,25.70
2012,08,16,00,12,25.70
2012,08,16,00,13,25.70
2012,08,16,00,14,25.60
2012,08,16,00,15,25.60
2012,08,16,00,16,25.60
2012,08,16,00,17,25.60
2012,08,16,00,18,25.70
2012,08,16,00,19,25.70
2012,08,16,00,20,25.70
2012,08,16,00,21,25.70
2012,08,16,00,22,25.70
2012,08,16,00,23,25.70
2012,08,16,00,24,25.70
2012,08,16,00,25,25.70
2012,08,16,00,26,25.60
2012,08,16,00,27,25.60
2012,08,16,00,28,25.60
2012,08,16,00,29,25.50
2012,08,16,00,30,25.40
2012,08,16,00,31,25.40
2012,08,16,00,32,25.30
2012,08,16,00,33,25.30
2012,08,16,00,34,25.30
2012,08,16,00,35,25.30
2012,08,16,00,36,25.30
2012,08,16,00,37,25.40
2012,08,16,00,38,25.40
2012,08,16,00,39,25.40
2012,08,16,00,40,25.40
2012,08,16,00,41,25.40
2012,08,16,00,42,25.40
2012,08,16,00,43,25.40
2012,08,16,00,44,25.50
2012,08,16,00,45,25.40
2012,08,16,00,46,25.40
2012,08,16,00,47,25.40
2012,08,16,00,48,25.40
2012,08,16,00,49,25.40
2012,08,16,00,50,25.40
2012,08,16,00,51,25.40
2012,08,16,00,52,25.40
2012,08,16,00,53,25.40
2012,08,16,00,54,25.40
2012,08,16,00,55,25.50
2012,08,16,00,56,25.50
2012,08,16,00,57,25.50
2012,08,16,00,58,25.50
2012,08,16,00,59,25.50
2012,08,16,01,00,25.40
2012,08,16,01,01,25.40
2012,08,16,01,02,25.40
2012,08,16,01,03,25.40
2012,08,16,01,04,25.40
2012,08,16,01,05,25.40
2012,08,16,01,06,25.40
2012,08,16,01,07,25.40
2012,08,16,01,08,25.40
2012,08,16,01,09,25.30
2012,08,16,01,10,25.30
2012,08,16,01,11,25.30
2012,08,16,01,12,25.30
2012,08,16,01,13,25.20
2012,08,16,01,14,25.20
2012,08,16,01,15,25.20
2012,08,16,01,16,25.20
2012,08,16,01,17,25.20
2012,08,16,01,18,25.20
2012,08,16,01,19,25.20
2012,08,16,01,20,25.10
2012,08,16,01,21,25.10
2012,08,16,01,22,25.10
2012,08,16,01,23,25.10
2012,08,16,01,24,25.10
2012,08,16,01,25,25.10
2012,08,16,01,26,25.00
2012,08,16,01,27,25.00
2012,08,16,01,28,25.00
2012,08,16,01,29,24.90
2012,08,16,01,30,24.90
2012,08,16,01,31,24.80
2012,08,16,01,32,24.80
2012,08,16,01,33,24.80
2012,08,16,01,34,24.80
2012,08,16,01,35,24.80
2012,08,16,01,36,24.80
2012,08,16,01,37,24.70
2012,08,16,01,38,24.70
2012,08,16,01,39,24.70
2012,08,16,01,40,24.70
2012,08,16,01,41,24.70
2012,08,16,01,42,24.70
2012,08,16,01,43,24.60
2012,08,16,01,44,24.60
2012,08,16,01,45,24.60
2012,08,16,01,46,24.60
2012,08,16,01,47,24.60
2012,08,16,01,48,24.60
2012,08,16,01,49,24.60
2012,08,16,01,50,24.60
2012,08,16,01,51,24.60
2012,08,16,01,52,24.60
2012,08,16,01,53,24.60
2012,08,16,01,54,24.60
2012,08,16,01,55,24.50
2012,08,16,01,56,24.50
2012,08,16,01,57,24.50
2012,08,16,01,58,24.40
2012,08,16,01,59,24.40
2012,08,16,02,00,24.40
2012,08,16,02,01,24.30
2012,08,16,02,02,24.30
2012,08,16,02,03,24.30
2012,08,16,02,04,24.30
2012,08,16,02,05,24.30
2012,08,16,02,06,24.20
2012,08,16,02,07,24.20
2012,08,16,02,08,24.20
2012,08,16,02,09,24.20
2012,08,16,02,10,24.20
2012,08,16,02,11,24.20
2012,08,16,02,12,24.20
2012,08,16,02,13,24.20
2012,08,16,02,14,24.20
2012,08,16,02,15,24.20
2012,08,16,02,16,24.20
2012,08,16,02,17,24.20
2012,08,16,02,18,24.20
2012,08,16,02,19,24.10
2012,08,16,02,20,24.10
2012,08,16,02,21,24.10
2012,08,16,02,22,24.10
2012,08,16,02,23,24.10
2012,08,16,02,24,24.10
2012,08,16,02,25,24.00
2012,08,16,02,26,24.00
2012,08,16,02,27,24.00
2012,08,16,02,28,24.00
2012,08,16,02,29,24.00
2012,08,16,02,30,24.00
2012,08,16,02,31,24.00
2012,08,16,02,32,24.00
2012,08,16,02,33,24.00
2012,08,16,02,34,24.00
2012,08,16,02,35,24.00
2012,08,16,02,36,24.00
2012,08,16,02,37,23.90
2012,08,16,02,38,23.90
2012,08,16,02,39,23.90
2012,08,16,02,40,23.90
2012,08,16,02,41,23.90
2012,08,16,02,42,23.90
2012,08,16,02,43,23.90
2012,08,16,02,44,23.90
2012,08,16,02,45,23.90
2012,08,16,02,46,23.90
2012,08,16,02,47,23.90
2012,08,16,02,48,23.80
2012,08,16,02,49,23.80
2012,08,16,02,50,23.80
2012,08,16,02,51,23.80
2012,08,16,02,52,23.80
2012,08,16,02,53,23.70
2012,08,16,02,54,23.70
2012,08,16,02,55,23.70
2012,08,16,02,56,23.70
2012,08,16,02,57,23.70
2012,08,16,02,58,23.70
2012,08,16,02,59,23.70
2012,08,16,03,00,23.60
2012,08,16,03,01,23.60
2012,08,16,03,02,23.60
2012,08,16,03,03,23.60
2012,08,16,03,04,23.60
2012,08,16,03,05,23.60
2012,08,16,03,06,23.60
2012,08,16,03,07,23.60
2012,08,16,03,08,23.50
2012,08,16,03,09,23.50
2012,08,16,03,10,23.50
2012,08,16,03,11,23.50
2012,08,16,03,12,23.50
2012,08,16,03,13,23.50
2012,08,16,03,14,23.60
2012,08,16,03,15,23.60
2012,08,16,03,16,23.60
2012,08,16,03,17,23.60
2012,08,16,03,18,23.70
2012,08,16,03,19,23.70
2012,08,16,03,20,23.60
2012,08,16,03,21,23.60
2012,08,16,03,22,23.60
2012,08,16,03,23,23.60
2012,08,16,03,24,23.60
2012,08,16,03,25,23.60
2012,08,16,03,26,23.60
2012,08,16,03,27,23.60
2012,08,16,03,28,23.60
2012,08,16,03,29,23.60
2012,08,16,03,30,23.60
2012,08,16,03,31,23.60
2012,08,16,03,32,23.60
2012,08,16,03,33,23.50
2012,08,16,03,34,23.50
2012,08,16,03,35,23.50
2012,08,16,03,36,23.50
2012,08,16,03,37,23.40
2012,08,16,03,38,23.40
2012,08,16,03,39,23.40
2012,08,16,03,40,23.30
2012,08,16,03,41,23.30
2012,08,16,03,42,23.30
2012,08,16,03,43,23.30
2012,08,16,03,44,23.30
2012,08,16,03,45,23.30
2012,08,16,03,46,23.30
2012,08,16,03,47,23.20
2012,08,16,03,48,23.20
2012,08,16,03,49,23.20
2012,08,16,03,50,23.20
2012,08,16,03,51,23.20
2012,08,16,03,52,23.10
2012,08,16,03,53,23.10
2012,08,16,03,54,23.10
2012,08,16,03,55,23.10
2012,08,16,03,56,23.10
2012,08,16,03,57,23.10
2012,08,16,03,58,23.00
2012,08,16,03,59,23.00
2012,08,16,04,00,23.00
2012,08,16,04,01,23.00
2012,08,16,04,02,23.00
2012,08,16,04,03,22.90
2012,08,16,04,04,22.90
2012,08,16,04,05,22.90
2012,08,16,04,06,22.90
2012,08,16,04,07,22.90
2012,08,16,04,08,22.90
2012,08,16,04,09,22.90
2012,08,16,04,10,22.80
2012,08,16,04,11,22.80
2012,08,16,04,12,22.80
2012,08,16,04,13,22.80
2012,08,16,04,14,22.80
2012,08,16,04,15,22.70
2012,08,16,04,16,22.70
2012,08,16,04,17,22.70
2012,08,16,04,18,22.70
2012,08,16,04,19,22.70
2012,08,16,04,20,22.70
2012,08,16,04,21,22.70
2012,08,16,04,22,22.70
2012,08,16,04,23,22.70
2012,08,16,04,24,22.70
2012,08,16,04,25,22.70
2012,08,16,04,26,22.60
2012,08,16,04,27,22.60
2012,08,16,04,28,22.60
2012,08,16,04,29,22.60
2012,08,16,04,30,22.60
2012,08,16,04,31,22.60
2012,08,16,04,32,22.60
2012,08,16,04,33,22.60
2012,08,16,04,34,22.60
2012,08,16,04,35,22.60
2012,08,16,04,36,22.60
2012,08,16,04,37,22.60
2012,08,16,04,38,22.60
2012,08,16,04,39,22.60
2012,08,16,04,40,22.60
2012,08,16,04,41,22.50
2012,08,16,04,42,22.50
2012,08,16,04,43,22.50
2012,08,16,04,44,22.40
2012,08,16,04,45,22.50
2012,08,16,04,46,22.50
2012,08,16,04,47,22.50
2012,08,16,04,48,22.40
2012,08,16,04,49,22.40
2012,08,16,04,50,22.40
2012,08,16,04,51,22.30
2012,08,16,04,52,22.30
2012,08,16,04,53,22.30
2012,08,16,04,54,22.30
2012,08,16,04,55,22.30
2012,08,16,04,56,22.30
2012,08,16,04,57,22.30
2012,08,16,04,58,22.30
2012,08,16,04,59,22.30
2012,08,16,05,00,22.30
2012,08,16,05,01,22.30
2012,08,16,05,02,22.30
2012,08,16,05,03,22.30
2012,08,16,05,04,22.30
2012,08,16,05,05,22.30
2012,08,16,05,06,22.30
2012,08,16,05,07,22.30
2012,08,16,05,08,22.30
2012,08,16,05,09,22.20
2012,08,16,05,10,22.20
2012,08,16,05,11,22.20
2012,08,16,05,12,22.30
2012,08,16,05,13,22.30
2012,08,16,05,14,22.30
2012,08,16,05,15,22.30
2012,08,16,05,16,22.30
2012,08,16,05,17,22.20
2012,08,16,05,18,22.20
2012,08,16,05,19,22.20
2012,08,16,05,20,22.20
2012,08,16,05,21,22.20
2012,08,16,05,22,22.20
2012,08,16,05,23,22.20
2012,08,16,05,24,22.20
2012,08,16,05,25,22.20
2012,08,16,05,26,22.20
2012,08,16,05,27,22.20
2012,08,16,05,28,22.20
2012,08,16,05,29,22.20
2012,08,16,05,30,22.20
2012,08,16,05,31,22.20
2012,08,16,05,32,22.20
2012,08,16,05,33,22.10
2012,08,16,05,34,22.10
2012,08,16,05,35,22.10
2012,08,16,05,36,22.10
2012,08,16,05,37,22.10
2012,08,16,05,38,22.00
2012,08,16,05,39,22.00
2012,08,16,05,40,22.00
2012,08,16,05,41,22.00
2012,08,16,05,42,22.00
2012,08,16,05,43,22.00
2012,08,16,05,44,22.00
2012,08,16,05,45,22.00
2012,08,16,05,46,22.00
2012,08,16,05,47,22.00
2012,08,16,05,48,22.00
2012,08,16,05,49,22.00
2012,08,16,05,50,22.00
2012,08,16,05,51,22.00
2012,08,16,05,52,22.00
2012,08,16,05,53,22.00
2012,08,16,05,54,22.00
2012,08,16,05,55,22.10
2012,08,16,05,56,22.10
2012,08,16,05,57,22.10
2012,08,16,05,58,22.10
2012,08,16,05,59,22.10
2012,08,16,06,00,22.10
2012,08,16,06,01,22.10
2012,08,16,06,02,22.10
2012,08,16,06,03,22.10
2012,08,16,06,04,22.20
2012,08,16,06,05,22.20
2012,08,16,06,06,22.20
2012,08,16,06,07,22.10
2012,08,16,06,08,22.10
2012,08,16,06,09,22.10
2012,08,16,06,10,22.10
2012,08,16,06,11,22.10
2012,08,16,06,12,22.10
2012,08,16,06,13,22.10
2012,08,16,06,14,22.10
2012,08,16,06,15,22.10
2012,08,16,06,16,22.10
2012,08,16,06,17,22.10
2012,08,16,06,18,22.10
2012,08,16,06,19,22.10
2012,08,16,06,20,22.10
2012,08,16,06,21,22.10
2012,08,16,06,22,22.10
2012,08,16,06,23,22.10
2012,08,16,06,24,22.10
2012,08,16,06,25,22.10
2012,08,16,06,26,22.10
2012,08,16,06,27,22.10
2012,08,16,06,28,22.10
2012,08,16,06,29,22.00
2012,08,16,06,30,22.10
2012,08,16,06,31,22.00
2012,08,16,06,32,22.00
2012,08,16,06,33,22.00
2012,08,16,06,34,22.00
2012,08,16,06,35,22.00
2012,08,16,06,36,22.00
2012,08,16,06,37,22.00
2012,08,16,06,38,22.00
2012,08,16,06,39,22.00
2012,08,16,06,40,22.00
2012,08,16,06,41,22.00
2012,08,16,06,42,21.90
2012,08,16,06,43,21.90
2012,08,16,06,44,21.90
2012,08,16,06,45,21.90
2012,08,16,06,46,21.90
2012,08,16,06,47,21.80
2012,08,16,06,48,21.80
2012,08,16,06,49,21.80
2012,08,16,06,50,21.80
2012,08,16,06,51,21.90
2012,08,16,06,52,21.90
2012,08,16,06,53,21.90
2012,08,16,06,54,21.90
2012,08,16,06,55,22.00
2012,08,16,06,56,22.00
2012,08,16,06,57,22.10
2012,08,16,06,58,22.10
2012,08,16,06,59,22.10
2012,08,16,07,00,22.10
2012,08,16,07,01,22.10
2012,08,16,07,02,22.10
2012,08,16,07,03,22.10
2012,08,16,07,04,22.20
2012,08,16,07,05,22.20
2012,08,16,07,06,22.20
2012,08,16,07,07,22.30
2012,08,16,07,08,22.30
2012,08,16,07,09,22.30
2012,08,16,07,10,22.30
2012,08,16,07,11,22.30
2012,08,16,07,12,22.30
2012,08,16,07,13,22.30
2012,08,16,07,14,22.30
2012,08,16,07,15,22.30
2012,08,16,07,16,22.40
2012,08,16,07,17,22.40
2012,08,16,07,18,22.40
2012,08,16,07,19,22.40
2012,08,16,07,20,22.30
2012,08,16,07,21,22.30
2012,08,16,07,22,22.30
2012,08,16,07,23,22.30
2012,08,16,07,24,22.30
2012,08,16,07,25,22.30
2012,08,16,07,26,22.30
2012,08,16,07,27,22.30
2012,08,16,07,28,22.40
2012,08,16,07,29,22.40
2012,08,16,07,30,22.40
2012,08,16,07,31,22.40
2012,08,16,07,32,22.50
2012,08,16,07,33,22.50
2012,08,16,07,34,22.50
2012,08,16,07,35,22.60
2012,08,16,07,36,22.60
2012,08,16,07,37,22.60
2012,08,16,07,38,22.70
2012,08,16,07,39,22.70
2012,08,16,07,40,22.70
2012,08,16,07,41,22.70
2012,08,16,07,42,22.70
2012,08,16,07,43,22.70
2012,08,16,07,44,22.70
2012,08,16,07,45,22.70
2012,08,16,07,46,22.70
2012,08,16,07,47,22.70
2012,08,16,07,48,22.80
2012,08,16,07,49,22.80
2012,08,16,07,50,22.80
2012,08,16,07,51,22.80
2012,08,16,07,52,22.80
2012,08,16,07,53,22.90
2012,08,16,07,54,22.90
2012,08,16,07,55,22.90
2012,08,16,07,56,22.90
2012,08,16,07,57,22.90
2012,08,16,07,58,23.00
2012,08,16,07,59,23.00
2012,08,16,08,00,23.00
2012,08,16,08,01,23.00
2012,08,16,08,02,23.00
2012,08,16,08,03,23.10
2012,08,16,08,04,23.10
2012,08,16,08,05,23.10
2012,08,16,08,06,23.10
2012,08,16,08,07,23.10
2012,08,16,08,08,23.10
2012,08,16,08,09,23.10
2012,08,16,08,10,23.10
2012,08,16,08,11,23.10
2012,08,16,08,12,23.10
2012,08,16,08,13,23.10
2012,08,16,08,14,23.10
2012,08,16,08,15,23.10
2012,08,16,08,16,23.10
2012,08,16,08,17,23.20
2012,08,16,08,18,23.20
2012,08,16,08,19,23.20
2012,08,16,08,20,23.20
2012,08,16,08,21,23.20
2012,08,16,08,22,23.20
2012,08,16,08,23,23.20
2012,08,16,08,24,23.20
2012,08,16,08,25,23.20
2012,08,16,08,26,23.20
2012,08,16,08,27,23.30
2012,08,16,08,28,23.30
2012,08,16,08,29,23.30
2012,08,16,08,30,23.30
2012,08,16,08,31,23.30
2012,08,16,08,32,23.30
2012,08,16,08,33,23.30
2012,08,16,08,34,23.30
2012,08,16,08,35,23.30
2012,08,16,08,36,23.30
2012,08,16,08,37,23.30
2012,08,16,08,38,23.30
2012,08,16,08,39,23.30
2012,08,16,08,40,23.30
2012,08,16,08,41,23.30
2012,08,16,08,42,23.30
2012,08,16,08,43,23.30
2012,08,16,08,44,23.30
2012,08,16,08,45,23.40
2012,08,16,08,46,23.40
2012,08,16,08,47,23.40
2012,08,16,08,48,23.40
2012,08,16,08,49,23.40
2012,08,16,08,50,23.50
2012,08,16,08,51,23.50
2012,08,16,08,52,23.50
2012,08,16,08,53,23.60
2012,08,16,08,54,23.60
2012,08,16,08,55,23.60
2012,08,16,08,56,23.60
2012,08,16,08,57,23.70
2012,08,16,08,58,23.70
2012,08,16,08,59,23.70
2012,08,16,09,00,23.70
2012,08,16,09,01,23.70
2012,08,16,09,02,23.80
2012,08,16,09,03,23.80
2012,08,16,09,04,23.90
2012,08,16,09,05,23.90
2012,08,16,09,06,23.90
2012,08,16,09,07,23.90
2012,08,16,09,08,24.00
2012,08,16,09,09,24.00
2012,08,16,09,10,24.00
2012,08,16,09,11,24.00
2012,08,16,09,12,24.10
2012,08,16,09,13,24.10
2012,08,16,09,14,24.10
2012,08,16,09,15,24.10
2012,08,16,09,16,24.20
2012,08,16,09,17,24.20
2012,08,16,09,18,24.20
2012,08,16,09,19,24.20
2012,08,16,09,20,24.20
2012,08,16,09,21,24.20
2012,08,16,09,22,24.20
2012,08,16,09,23,24.20
2012,08,16,09,24,24.20
2012,08,16,09,25,24.20
2012,08,16,09,26,24.20
2012,08,16,09,27,24.20
2012,08,16,09,28,24.30
2012,08,16,09,29,24.30
2012,08,16,09,30,24.30
2012,08,16,09,31,24.30
2012,08,16,09,32,24.40
2012,08,16,09,33,24.40
2012,08,16,09,34,24.40
2012,08,16,09,35,24.40
2012,08,16,09,36,24.40
2012,08,16,09,37,24.40
2012,08,16,09,38,24.40
2012,08,16,09,39,24.40
2012,08,16,09,40,24.40
2012,08,16,09,41,24.40
2012,08,16,09,42,24.50
2012,08,16,09,43,24.50
2012,08,16,09,44,24.50
2012,08,16,09,45,24.50
2012,08,16,09,46,24.50
2012,08,16,09,47,24.50
2012,08,16,09,48,24.60
2012,08,16,09,49,24.50
2012,08,16,09,50,24.50
2012,08,16,09,51,24.50
2012,08,16,09,52,24.60
2012,08,16,09,53,24.60
2012,08,16,09,54,24.70
2012,08,16,09,55,24.70
2012,08,16,09,56,24.80
2012,08,16,09,57,24.80
2012,08,16,09,58,24.80
2012,08,16,09,59,24.80
2012,08,16,10,00,24.80
2012,08,16,10,01,24.70
2012,08,16,10,02,24.70
2012,08,16,10,03,24.60
2012,08,16,10,04,24.60
2012,08,16,10,05,24.60
2012,08,16,10,06,24.60
2012,08,16,10,07,24.60
2012,08,16,10,08,24.50
2012,08,16,10,09,24.50
2012,08,16,10,10,24.50
2012,08,16,10,11,24.50
2012,08,16,10,12,24.40
2012,08,16,10,13,24.30
2012,08,16,10,14,24.30
2012,08,16,10,15,24.30
2012,08,16,10,16,24.30
2012,08,16,10,17,24.30
2012,08,16,10,18,24.30
2012,08,16,10,19,24.30
2012,08,16,10,20,24.40
2012,08,16,10,21,24.50
2012,08,16,10,22,24.50
2012,08,16,10,23,24.50
2012,08,16,10,24,24.50
2012,08,16,10,25,24.60
2012,08,16,10,26,24.60
2012,08,16,10,27,24.70
2012,08,16,10,28,24.80
2012,08,16,10,29,24.80
2012,08,16,10,30,24.90
2012,08,16,10,31,25.00
2012,08,16,10,32,25.00
2012,08,16,10,33,25.10
2012,08,16,10,34,25.10
2012,08,16,10,35,25.20
2012,08,16,10,36,25.30
2012,08,16,10,37,25.30
2012,08,16,10,38,25.40
2012,08,16,10,39,25.50
2012,08,16,10,40,25.50
2012,08,16,10,41,25.50
2012,08,16,10,42,25.50
2012,08,16,10,43,25.60
2012,08,16,10,44,25.60
2012,08,16,10,45,25.60
2012,08,16,10,46,25.60
2012,08,16,10,47,25.70
2012,08,16,10,48,25.70
2012,08,16,10,49,25.70
2012,08,16,10,50,25.70
2012,08,16,10,51,25.70
2012,08,16,10,52,25.70
2012,08,16,10,53,25.80
2012,08,16,10,54,25.80
2012,08,16,10,55,25.80
2012,08,16,10,56,25.80
2012,08,16,10,57,25.80
2012,08,16,10,58,25.80
2012,08,16,10,59,25.90
2012,08,16,11,00,26.00
2012,08,16,11,01,26.00
2012,08,16,11,02,26.10
2012,08,16,11,03,26.10
2012,08,16,11,04,26.10
2012,08,16,11,05,26.20
2012,08,16,11,06,26.20
2012,08,16,11,07,26.20
2012,08,16,11,08,26.20
2012,08,16,11,09,26.20
2012,08,16,11,10,26.30
2012,08,16,11,11,26.30
2012,08,16,11,12,26.30
2012,08,16,11,13,26.20
2012,08,16,11,14,26.20
2012,08,16,11,15,26.10
2012,08,16,11,16,26.10
2012,08,16,11,17,26.10
2012,08,16,11,18,26.20
2012,08,16,11,19,26.20
2012,08,16,11,20,26.20
2012,08,16,11,21,26.30
2012,08,16,11,22,26.30
2012,08,16,11,23,26.30
2012,08,16,11,24,26.40
2012,08,16,11,25,26.30
2012,08,16,11,26,26.30
2012,08,16,11,27,26.30
2012,08,16,11,28,26.30
2012,08,16,11,29,26.30
2012,08,16,11,30,26.30
2012,08,16,11,31,26.40
2012,08,16,11,32,26.40
2012,08,16,11,33,26.40
2012,08,16,11,34,26.40
2012,08,16,11,35,26.40
2012,08,16,11,36,26.40
2012,08,16,11,37,26.50
2012,08,16,11,38,26.50
2012,08,16,11,39,26.50
2012,08,16,11,40,26.60
2012,08,16,11,41,26.60
2012,08,16,11,42,26.50
2012,08,16,11,43,26.50
2012,08,16,11,44,26.50
2012,08,16,11,45,26.50
2012,08,16,11,46,26.50
2012,08,16,11,47,26.60
2012,08,16,11,48,26.50
2012,08,16,11,49,26.50
2012,08,16,11,50,26.40
2012,08,16,11,51,26.40
2012,08,16,11,52,26.50
2012,08,16,11,53,26.50
2012,08,16,11,54,26.40
2012,08,16,11,55,26.40
2012,08,16,11,56,26.40
2012,08,16,11,57,26.50
2012,08,16,11,58,26.50
2012,08,16,11,59,26.60
2012,08,16,12,00,26.50
2012,08,16,12,01,26.50
2012,08,16,12,02,26.50
2012,08,16,12,03,26.50
2012,08,16,12,04,26.40
2012,08,16,12,05,26.40
2012,08,16,12,06,26.40
2012,08,16,12,07,26.40
2012,08,16,12,08,26.40
2012,08,16,12,09,26.40
2012,08,16,12,10,26.40
2012,08,16,12,11,26.40
2012,08,16,12,12,26.50
2012,08,16,12,13,26.50
2012,08,16,12,14,26.50
2012,08,16,12,15,26.60
2012,08,16,12,16,26.60
2012,08,16,12,17,26.60
2012,08,16,12,18,26.60
2012,08,16,12,19,26.70
2012,08,16,12,20,26.70
2012,08,16,12,21,26.70
2012,08,16,12,22,26.80
2012,08,16,12,23,26.80
2012,08,16,12,24,26.90
2012,08,16,12,25,26.90
2012,08,16,12,26,26.90
2012,08,16,12,27,26.80
2012,08,16,12,28,26.80
2012,08,16,12,29,26.70
2012,08,16,12,30,26.70
2012,08,16,12,31,26.70
2012,08,16,12,32,26.60
2012,08,16,12,33,26.60
2012,08,16,12,34,26.50
2012,08,16,12,35,26.50
2012,08,16,12,36,26.50
2012,08,16,12,37,26.60
2012,08,16,12,38,26.60
2012,08,16,12,39,26.60
2012,08,16,12,40,26.50
2012,08,16,12,41,26.50
2012,08,16,12,42,26.50
2012,08,16,12,43,26.60
2012,08,16,12,44,26.60
2012,08,16,12,45,26.60
2012,08,16,12,46,26.60
2012,08,16,12,47,26.60
2012,08,16,12,48,26.60
2012,08,16,12,49,26.70
2012,08,16,12,50,26.70
2012,08,16,12,51,26.70
2012,08,16,12,52,26.70
2012,08,16,12,53,26.80
2012,08,16,12,54,26.90
2012,08,16,12,55,27.10
2012,08,16,12,56,27.20
2012,08,16,12,57,27.20
2012,08,16,12,58,27.20
2012,08,16,12,59,27.20
2012,08,16,13,00,27.10
2012,08,16,13,01,27.10
2012,08,16,13,02,27.00
2012,08,16,13,03,27.00
2012,08,16,13,04,27.00
2012,08,16,13,05,27.10
2012,08,16,13,06,27.10
2012,08,16,13,07,27.10
2012,08,16,13,08,27.10
2012,08,16,13,09,27.10
2012,08,16,13,10,27.20
2012,08,16,13,11,27.20
2012,08,16,13,12,27.30
2012,08,16,13,13,27.40
2012,08,16,13,14,27.40
2012,08,16,13,15,27.50
2012,08,16,13,16,27.50
2012,08,16,13,17,27.60
2012,08,16,13,18,27.60
2012,08,16,13,19,27.60
2012,08,16,13,20,27.60
2012,08,16,13,21,27.60
2012,08,16,13,22,27.70
2012,08,16,13,23,27.80
2012,08,16,13,24,27.80
2012,08,16,13,25,27.80
2012,08,16,13,26,27.80
2012,08,16,13,27,27.90
2012,08,16,13,28,27.90
2012,08,16,13,29,27.90
2012,08,16,13,30,27.80
2012,08,16,13,31,27.80
2012,08,16,13,32,27.80
2012,08,16,13,33,27.80
2012,08,16,13,34,27.80
2012,08,16,13,35,27.80
2012,08,16,13,36,27.80
2012,08,16,13,37,27.80
2012,08,16,13,38,27.80
2012,08,16,13,39,27.80
2012,08,16,13,40,27.80
2012,08,16,13,41,27.80
2012,08,16,13,42,27.80
2012,08,16,13,43,27.90
2012,08,16,13,44,27.90
2012,08,16,13,45,27.90
2012,08,16,13,46,27.90
2012,08,16,13,47,28.00
2012,08,16,13,48,28.00
2012,08,16,13,49,28.10
2012,08,16,13,50,28.10
2012,08,16,13,51,28.10
2012,08,16,13,52,28.10
2012,08,16,13,53,28.20
2012,08,16,13,54,28.20
2012,08,16,13,55,28.30
2012,08,16,13,56,28.30
2012,08,16,13,57,28.40
2012,08,16,13,58,28.40
2012,08,16,13,59,28.50
2012,08,16,14,00,28.60
2012,08,16,14,01,28.60
2012,08,16,14,02,28.60
2012,08,16,14,03,28.70
2012,08,16,14,04,28.80
2012,08,16,14,05,28.90
2012,08,16,14,06,29.00
2012,08,16,14,07,29.00
2012,08,16,14,08,29.10
2012,08,16,14,09,29.10
2012,08,16,14,10,29.00
2012,08,16,14,11,29.00
2012,08,16,14,12,29.00
2012,08,16,14,13,29.10
2012,08,16,14,14,29.10
2012,08,16,14,15,29.10
2012,08,16,14,16,29.10
2012,08,16,14,17,29.10
2012,08,16,14,18,29.10
2012,08,16,14,19,29.20
2012,08,16,14,20,29.20
2012,08,16,14,21,29.30
2012,08,16,14,22,29.30
2012,08,16,14,23,29.30
2012,08,16,14,24,29.30
2012,08,16,14,25,29.30
2012,08,16,14,26,29.20
2012,08,16,14,27,29.20
2012,08,16,14,28,29.30
2012,08,16,14,29,29.30
2012,08,16,14,30,29.20
2012,08,16,14,31,29.20
2012,08,16,14,32,29.10
2012,08,16,14,33,29.00
2012,08,16,14,34,29.00
2012,08,16,14,35,28.90
2012,08,16,14,36,28.90
2012,08,16,14,37,28.90
2012,08,16,14,38,28.90
2012,08,16,14,39,29.00
2012,08,16,14,40,29.00
2012,08,16,14,41,29.10
2012,08,16,14,42,29.20
2012,08,16,14,43,29.20
2012,08,16,14,44,29.20
2012,08,16,14,45,29.30
2012,08,16,14,46,29.40
2012,08,16,14,47,29.50
2012,08,16,14,48,29.60
2012,08,16,14,49,29.70
2012,08,16,14,50,29.80
2012,08,16,14,51,29.80
2012,08,16,14,52,29.80
2012,08,16,14,53,29.80
2012,08,16,14,54,29.80
2012,08,16,14,55,29.80
2012,08,16,14,56,29.80
2012,08,16,14,57,29.90
2012,08,16,14,58,29.90
2012,08,16,14,59,30.00
2012,08,16,15,00,30.00
2012,08,16,15,01,30.00
2012,08,16,15,02,30.00
2012,08,16,15,03,30.00
2012,08,16,15,04,30.00
2012,08,16,15,05,30.00
2012,08,16,15,06,30.00
2012,08,16,15,07,29.90
2012,08,16,15,08,29.80
2012,08,16,15,09,29.80
2012,08,16,15,10,29.90
2012,08,16,15,11,29.90
2012,08,16,15,12,29.90
2012,08,16,15,13,30.00
2012,08,16,15,14,30.00
2012,08,16,15,15,30.10
2012,08,16,15,16,30.10
2012,08,16,15,17,30.00
2012,08,16,15,18,30.00
2012,08,16,15,19,30.00
2012,08,16,15,20,30.10
2012,08,16,15,21,30.00
2012,08,16,15,22,30.00
2012,08,16,15,23,29.90
2012,08,16,15,24,29.90
2012,08,16,15,25,30.00
2012,08,16,15,26,30.00
2012,08,16,15,27,30.10
2012,08,16,15,28,30.10
2012,08,16,15,29,30.10
2012,08,16,15,30,30.10
2012,08,16,15,31,30.10
2012,08,16,15,32,30.20
2012,08,16,15,33,30.20
2012,08,16,15,34,30.20
2012,08,16,15,35,30.30
2012,08,16,15,36,30.40
2012,08,16,15,37,30.40
2012,08,16,15,38,30.30
2012,08,16,15,39,30.20
2012,08,16,15,40,30.10
2012,08,16,15,41,30.10
2012,08,16,15,42,30.00
2012,08,16,15,43,30.00
2012,08,16,15,44,30.00
2012,08,16,15,45,30.00
2012,08,16,15,46,30.00
2012,08,16,15,47,30.10
2012,08,16,15,48,30.10
2012,08,16,15,49,30.20
2012,08,16,15,50,30.30
2012,08,16,15,51,30.30
2012,08,16,15,52,30.30
2012,08,16,15,53,30.30
2012,08,16,15,54,30.30
2012,08,16,15,55,30.40
2012,08,16,15,56,30.50
2012,08,16,15,57,30.50
2012,08,16,15,58,30.50
2012,08,16,15,59,30.60
2012,08,16,16,00,30.50
2012,08,16,16,01,30.40
2012,08,16,16,02,30.40
2012,08,16,16,03,30.40
2012,08,16,16,04,30.50
2012,08,16,16,05,30.60
2012,08,16,16,06,30.60
2012,08,16,16,07,30.70
2012,08,16,16,08,30.70
2012,08,16,16,09,30.70
2012,08,16,16,10,30.70
2012,08,16,16,11,30.70
2012,08,16,16,12,30.70
2012,08,16,16,13,30.70
2012,08,16,16,14,30.60
2012,08,16,16,15,30.60
2012,08,16,16,16,30.50
2012,08,16,16,17,30.40
2012,08,16,16,18,30.30
2012,08,16,16,19,30.40
2012,08,16,16,20,30.30
2012,08,16,16,21,30.30
2012,08,16,16,22,30.30
2012,08,16,16,23,30.40
2012,08,16,16,24,30.40
2012,08,16,16,25,30.30
2012,08,16,16,26,30.40
2012,08,16,16,27,30.40
2012,08,16,16,28,30.40
2012,08,16,16,29,30.50
2012,08,16,16,30,30.50
2012,08,16,16,31,30.50
2012,08,16,16,32,30.60
2012,08,16,16,33,30.50
2012,08,16,16,34,30.60
2012,08,16,16,35,30.60
2012,08,16,16,36,30.70
2012,08,16,16,37,30.60
2012,08,16,16,38,30.60
2012,08,16,16,39,30.70
2012,08,16,16,40,30.70
2012,08,16,16,41,30.70
2012,08,16,16,42,30.70
2012,08,16,16,43,30.70
2012,08,16,16,44,30.80
2012,08,16,16,45,30.80
2012,08,16,16,46,30.80
2012,08,16,16,47,30.80
2012,08,16,16,48,30.80
2012,08,16,16,49,30.90
2012,08,16,16,50,31.00
2012,08,16,16,51,31.00
2012,08,16,16,52,31.10
2012,08,16,16,53,31.10
2012,08,16,16,54,31.10
2012,08,16,16,55,31.10
2012,08,16,16,56,31.10
2012,08,16,16,57,31.00
2012,08,16,16,58,31.00
2012,08,16,16,59,30.90
2012,08,16,17,00,30.90
2012,08,16,17,01,30.90
2012,08,16,17,02,30.90
2012,08,16,17,03,30.90
2012,08,16,17,04,31.00
2012,08,16,17,05,31.10
2012,08,16,17,06,31.10
2012,08,16,17,07,31.20
2012,08,16,17,08,31.20
2012,08,16,17,09,31.20
2012,08,16,17,10,31.20
2012,08,16,17,11,31.20
2012,08,16,17,12,31.20
2012,08,16,17,13,31.20
2012,08,16,17,14,31.20
2012,08,16,17,15,31.20
2012,08,16,17,16,31.30
2012,08,16,17,17,31.30
2012,08,16,17,18,31.40
2012,08,16,17,19,31.50